This is the latest recevied weather packets stored in our database for station/object WA1TYB-13. If no packets are shown the sender has not sent any weather packets the latest 10 day(s).
| Time | Temp. | Humidity | Pressure | Rain* | Wind** | Luminosity | Snow |
|---|---|---|---|---|---|---|---|
| 1777316154 | 6.67° C | 45% | 1015.7 hPa | 0 mm | - | 822 W/m² | - |
| 1777315852 | 5.56° C | 49% | 1015.9 hPa | 0 mm | - | 830 W/m² | - |
| 1777315550 | 5.56° C | 48% | 1015.7 hPa | 0 mm | - | 240 W/m² | - |
| 1777315248 | 6.67° C | 47% | 1015.7 hPa | 0 mm | - | 785 W/m² | - |
| 1777314945 | 6.11° C | 45% | 1016 hPa | 0 mm | - | 755 W/m² | - |
| 1777314640 | 6.11° C | 45% | 1015.9 hPa | 0 mm | - | 701 W/m² | - |
| 1777314338 | 5.56° C | 50% | 1016 hPa | 0 mm | - | 660 W/m² | - |
| 1777314035 | 5.56° C | 47% | 1016.1 hPa | 0 mm | - | 661 W/m² | - |
| 1777313732 | 5° C | 49% | 1016.2 hPa | 0 mm | - | 382 W/m² | - |
| 1777313430 | 5.56° C | 48% | 1016.1 hPa | 0 mm | - | 507 W/m² | - |
| 1777313126 | 6.11° C | 50% | 1016.2 hPa | 0 mm | - | 533 W/m² | - |
| 1777312822 | 5.56° C | 48% | 1015.8 hPa | 0 mm | - | 643 W/m² | - |
| 1777312519 | 5° C | 50% | 1016.3 hPa | 0 mm | - | 432 W/m² | - |
| 1777312216 | 4.44° C | 52% | 1016.1 hPa | 0 mm | - | 343 W/m² | - |
| 1777311914 | 5° C | 53% | 1016.3 hPa | 0 mm | - | 377 W/m² | - |
| 1777311610 | 5° C | 56% | 1016.3 hPa | 0 mm | - | 565 W/m² | - |
| 1777311309 | 4.44° C | 55% | 1016.5 hPa | 0 mm | - | 431 W/m² | - |
| 1777311005 | 4.44° C | 55% | 1016.3 hPa | 0 mm | - | 396 W/m² | - |
| 1777310703 | 3.89° C | 55% | 1016.6 hPa | 0 mm | - | 362 W/m² | - |
| 1777310400 | 3.89° C | 56% | 1016.6 hPa | 0 mm | - | 376 W/m² | - |
| 1777310097 | 3.89° C | 57% | 1016.6 hPa | 0 mm | - | 425 W/m² | - |
| 1777309795 | 3.89° C | 56% | 1016.6 hPa | 0 mm | - | 339 W/m² | - |
| 1777309492 | 3.89° C | 55% | 1016.6 hPa | 0 mm | - | 705 W/m² | - |
| 1777309189 | 3.33° C | 56% | 1016.6 hPa | 0 mm | - | 651 W/m² | - |
| 1777308888 | 2.78° C | 58% | 1016.6 hPa | 0 mm | - | 682 W/m² | - |
* Rain latest hour (hover to see other rain measurements)
** Current wind speed in m/s (hover to see current wind gust speed)